Погода в Нарите

Япония     35°48′14″N   140°20′44″E
темп.,
°C
ветер,
м/с
пор.,
м/с
влажн.,
%
обл.,
%
осадки,
мм/ч
давл.,
гПа
погр.,
м
1 декабря, ср
ср100:00+17ю71674100 0.3 10101209
03:00+17ю92174100 2.1 10071825
06:00+17ююв112383100 4.6 9991832
09:00+18юз112192100 19.5 9961665
12:00+18з585374 0.6 9961111
15:00+18ссз34420 0.6 9971140
18:00+14ссз48537 0.0 1001739
21:00+13ссз35645 0.1 1004835
2 декабря, чт
чт200:00+10ссз511331 0.0 1006993
03:00+10сз6123377 0.0 10081119
06:00+8ссз612340 0.0 1012825
09:00+10ссз58250 0.0 1016825
12:00+13сз34200 0.0 10161325
15:00+13ююз23230 0.0 10171648
18:00+11ююв364042 0.0 1019581
21:00+12ююв3848100 0.1 10191523
3 декабря, пт
пт300:00+11ююв268052 1.6 1018213
03:00+11юз27790 2.0 1016277
06:00+9з25830 0.0 1016273
09:00+14юз613501 0.0 10161617
12:00+16юз7154293 0.0 10131580
15:00+16юз510321 0.0 10121409
18:00+14ююз15374 0.0 1012223
21:00+12ююз264147 0.0 1012198
4 декабря, сб
сб400:00+11зсз23470 0.0 101179
03:00+10зсз25420 0.0 1011141
06:00+9сз16560 0.0 1011239
09:00+11сз24410 0.0 1013363
12:00+14ссз22320 0.0 1010927
15:00+14с22300 0.0 10111260
18:00+13всв22360 0.0 101251
21:00+10ссв49470 0.0 1015402
5 декабря, вс
вс500:00+9с254554 0.0 1017446
03:00+8ссв24495 0.0 1019408
06:00+7ссв36495 0.0 1023465
09:00+8ссв34375 0.0 1025726
12:00+10ссв22311 0.0 10251157
15:00+11всв22310 0.0 10261291
18:00+9всв35460 0.0 1029842
21:00+9всв36530 0.0 1031696